Погода в Кривянской

Россия / Ростовская область     47°23′42″N   40°10′03″E
темп.,
°C
ветер,
м/с
пор.,
м/с
влажн.,
%
обл.,
%
осадки,
мм/ч
давл.,
гПа
погр.,
м
19 апреля, пн
пн1900:00+9св118798 0.0 101630
03:00+9всв118882 0.1 101613
06:00+9св1289100 0.1 101535
09:00+10св2388100 0.6 1015181
12:00+11всв228373 0.1 1014356
15:00+13ю217538 0.1 1014632
18:00+13зюз1277100 0.0 1013194
21:00+10ю119096 0.0 101412
20 апреля, вт
вт2000:00+9в0093100 0.0 101310
03:00+9в2295100 0.0 101141
06:00+9в3798100 2.5 1009234
09:00+11всв4697100 10.9 1008291
12:00+12в61496100 2.6 1004746
15:00+16ююз8148585 3.4 1003679
18:00+13юз6128669 0.1 1004947
21:00+11ююз9158257 0.1 1006819
21 апреля, ср
ср2100:00+9юз9168794 0.1 1009779
03:00+9юз8148862 0.1 1012756
06:00+9зюз71187100 0.0 1014637
09:00+12зюз577521 0.0 1016780
12:00+15юз676196 0.6 10161535
15:00+14юз566320 1.4 10171186
18:00+14зюз46665 0.4 1017588
21:00+10зюз36804 0.4 1019128
22 апреля, чт
чт2200:00+8юз22830 0.0 102027
03:00+7зюз22912 0.0 102131
06:00+7юз22894 0.0 102220
09:00+12юз33740 0.0 1023502
12:00+16юз33570 0.0 10221323
15:00+17юз234878 0.4 10222008
18:00+15зюз3566100 0.3 1022155
21:00+11з2273100 0.5 102326
23 апреля, пт
пт2300:00+10зсз2276100 0.4 102318
03:00+9сз22796 0.4 102311
06:00+9зсз22782 0.0 102413
09:00+14зюз22600 0.0 1024396
12:00+17юз34493 0.0 10231740
15:00+18юз444257 0.0 10222371
18:00+16з355641 0.0 1022136
21:00+12з23580 0.0 102228